Location: Unspecified
(0.0000°N, 0.0000°E)
Time: 16:24:39
(UTC+00:00)

Explorer 11/Cluster Stage 4 - Pass Details

Date: 28 November 2019
Orbit: 467 x 1259 km, 28.8° (Epoch: 12 December)

Event Time Altitude Azimuth Distance (km) Brightness Sun altitude
Exits shadow 01:55:25 15° 157° (SSE) 2,843 9.7 -52.3°
Drops below altitude 10° 01:57:00 10° 150° (SSE) 3,235 10.1 -52.0°
Sets 02:00:25 0° 139° (SE) 4,188 10.9 -51.3°
